Time,TemperatureF,DewpointF,PressureIn,WindDirection,WindDirectionDegrees,WindSpeedMPH,WindSpeedGustMPH,Humidity,HourlyPrecipIn,Conditions,Clouds,dailyrainin,SoftwareType,DateUTC
2013-02-06 00:11:00,48.0,42.0,-100.00,North,-999,-999.0,-999.0,78,0.00,,,0.00,,2013-02-06 08:11:00,
2013-02-06 00:21:00,48.0,42.0,-100.00,North,-999,-999.0,-999.0,78,0.00,,,0.00,,2013-02-06 08:21:00,
2013-02-06 00:31:00,48.0,42.0,-100.00,North,-999,-999.0,-999.0,78,0.00,,,0.00,,2013-02-06 08:31:00,
2013-02-06 00:41:00,48.0,42.0,-100.00,North,-999,-999.0,-999.0,78,0.00,,,0.00,,2013-02-06 08:41:00,
2013-02-06 01:11:00,48.0,41.0,-100.00,North,-999,-999.0,-999.0,78,0.00,,,0.00,,2013-02-06 09:11:00,
2013-02-06 01:21:00,48.0,41.0,-100.00,North,-999,-999.0,-999.0,78,0.00,,,0.00,,2013-02-06 09:21:00,
2013-02-06 01:31:00,48.0,41.0,-100.00,North,-999,-999.0,-999.0,78,0.00,,,0.00,,2013-02-06 09:31:00,
2013-02-06 01:41:00,48.0,41.0,-100.00,North,-999,-999.0,-999.0,78,0.00,,,0.00,,2013-02-06 09:41:00,
2013-02-06 02:11:00,48.0,40.0,-100.00,North,-999,-999.0,-999.0,73,0.00,,,-99.99,,2013-02-06 10:11:00,
2013-02-06 02:21:00,48.0,40.0,-100.00,North,-999,-999.0,-999.0,73,0.00,,,-99.99,,2013-02-06 10:21:00,
2013-02-06 02:31:00,48.0,40.0,-100.00,North,-999,-999.0,-999.0,73,0.00,,,-99.99,,2013-02-06 10:31:00,
2013-02-06 02:41:00,48.0,40.0,-100.00,North,-999,-999.0,-999.0,73,0.00,,,-99.99,,2013-02-06 10:41:00,
2013-02-06 03:11:00,46.0,39.0,-100.00,North,-999,-999.0,-999.0,77,0.00,,,0.00,,2013-02-06 11:11:00,
2013-02-06 03:22:00,46.0,39.0,-100.00,North,-999,-999.0,-999.0,77,0.00,,,0.00,,2013-02-06 11:22:00,
2013-02-06 03:32:00,46.0,39.0,-100.00,North,-999,-999.0,-999.0,77,0.00,,,0.00,,2013-02-06 11:32:00,
2013-02-06 03:42:00,46.0,39.0,-100.00,North,-999,-999.0,-999.0,77,0.00,,,0.00,,2013-02-06 11:42:00,
2013-02-06 04:12:00,45.0,39.0,-100.00,North,-999,-999.0,-999.0,78,0.00,,,0.00,,2013-02-06 12:12:00,
2013-02-06 04:22:00,45.0,39.0,-100.00,North,-999,-999.0,-999.0,78,0.00,,,0.00,,2013-02-06 12:22:00,
2013-02-06 04:32:00,45.0,39.0,-100.00,North,-999,-999.0,-999.0,78,0.00,,,0.00,,2013-02-06 12:32:00,
2013-02-06 04:42:00,45.0,39.0,-100.00,North,-999,-999.0,-999.0,78,0.00,,,0.00,,2013-02-06 12:42:00,
2013-02-06 05:11:00,45.0,39.0,-100.00,North,-999,-999.0,-999.0,79,0.00,,,0.00,,2013-02-06 13:11:00,
2013-02-06 05:21:00,45.0,39.0,-100.00,North,-999,-999.0,-999.0,79,0.00,,,0.00,,2013-02-06 13:21:00,
2013-02-06 05:31:00,45.0,39.0,-100.00,North,-999,-999.0,-999.0,79,0.00,,,0.00,,2013-02-06 13:31:00,
2013-02-06 05:42:00,45.0,39.0,-100.00,North,-999,-999.0,-999.0,79,0.00,,,0.00,,2013-02-06 13:42:00,
2013-02-06 06:11:00,45.0,39.0,-100.00,North,-999,-999.0,-999.0,81,0.00,,,0.00,,2013-02-06 14:11:00,
2013-02-06 06:21:00,45.0,39.0,-100.00,North,-999,-999.0,-999.0,81,0.00,,,0.00,,2013-02-06 14:21:00,
2013-02-06 06:31:00,45.0,39.0,-100.00,North,-999,-999.0,-999.0,81,0.00,,,0.00,,2013-02-06 14:31:00,
2013-02-06 06:41:00,45.0,39.0,-100.00,North,-999,-999.0,-999.0,81,0.00,,,0.00,,2013-02-06 14:41:00,
2013-02-06 07:31:00,44.0,40.0,-100.00,North,-999,-999.0,-999.0,84,0.00,,,0.00,,2013-02-06 15:31:00,
2013-02-06 07:41:00,44.0,40.0,-100.00,North,-999,-999.0,-999.0,84,0.00,,,0.00,,2013-02-06 15:41:00,
2013-02-06 08:11:00,45.0,40.0,-100.00,North,-999,-999.0,-999.0,84,0.00,,,0.00,,2013-02-06 16:11:00,
2013-02-06 08:21:00,45.0,40.0,-100.00,North,-999,-999.0,-999.0,84,0.00,,,0.00,,2013-02-06 16:21:00,
2013-02-06 08:32:00,45.0,40.0,-100.00,North,-999,-999.0,-999.0,84,0.00,,,0.00,,2013-02-06 16:32:00,
2013-02-06 08:41:00,45.0,40.0,-100.00,North,-999,-999.0,-999.0,84,0.00,,,0.00,,2013-02-06 16:41:00,
2013-02-06 09:11:00,48.0,42.0,-100.00,North,-999,-999.0,-999.0,79,0.00,,,0.00,,2013-02-06 17:11:00,
2013-02-06 09:21:00,48.0,42.0,-100.00,North,-999,-999.0,-999.0,79,0.00,,,0.00,,2013-02-06 17:21:00,
2013-02-06 09:32:00,48.0,42.0,-100.00,North,-999,-999.0,-999.0,79,0.00,,,0.00,,2013-02-06 17:32:00,
2013-02-06 09:41:00,48.0,42.0,-100.00,North,-999,-999.0,-999.0,79,0.00,,,0.00,,2013-02-06 17:41:00,
2013-02-06 10:11:00,51.0,42.0,-100.00,North,-999,-999.0,-999.0,72,0.00,,,0.00,,2013-02-06 18:11:00,
2013-02-06 10:22:00,51.0,42.0,-100.00,North,-999,-999.0,-999.0,72,0.00,,,0.00,,2013-02-06 18:22:00,
2013-02-06 10:32:00,51.0,42.0,-100.00,North,-999,-999.0,-999.0,72,0.00,,,0.00,,2013-02-06 18:32:00,
2013-02-06 10:41:00,51.0,42.0,-100.00,North,-999,-999.0,-999.0,72,0.00,,,0.00,,2013-02-06 18:41:00,
2013-02-06 11:11:00,54.0,42.0,-100.00,North,-999,-999.0,-999.0,64,0.00,,,0.00,,2013-02-06 19:11:00,
2013-02-06 11:21:00,54.0,42.0,-100.00,North,-999,-999.0,-999.0,64,0.00,,,0.00,,2013-02-06 19:21:00,
2013-02-06 11:31:00,54.0,42.0,-100.00,North,-999,-999.0,-999.0,64,0.00,,,0.00,,2013-02-06 19:31:00,
2013-02-06 11:41:00,54.0,42.0,-100.00,North,-999,-999.0,-999.0,64,0.00,,,0.00,,2013-02-06 19:41:00,
2013-02-06 12:11:00,55.0,39.0,-100.00,North,-999,-999.0,-999.0,56,0.00,,,0.00,,2013-02-06 20:11:00,
2013-02-06 12:21:00,55.0,39.0,-100.00,North,-999,-999.0,-999.0,56,0.00,,,0.00,,2013-02-06 20:21:00,
2013-02-06 12:31:00,55.0,39.0,-100.00,North,-999,-999.0,-999.0,56,0.00,,,0.00,,2013-02-06 20:31:00,
2013-02-06 12:41:00,55.0,39.0,-100.00,North,-999,-999.0,-999.0,56,0.00,,,0.00,,2013-02-06 20:41:00,
2013-02-06 13:11:00,54.0,39.0,-100.00,North,-999,-999.0,-999.0,56,0.00,,,0.00,,2013-02-06 21:11:00,
2013-02-06 13:21:00,54.0,39.0,-100.00,North,-999,-999.0,-999.0,56,0.00,,,0.00,,2013-02-06 21:21:00,
2013-02-06 13:31:00,54.0,39.0,-100.00,North,-999,-999.0,-999.0,56,0.00,,,0.00,,2013-02-06 21:31:00,
2013-02-06 13:41:00,54.0,39.0,-100.00,North,-999,-999.0,-999.0,56,0.00,,,0.00,,2013-02-06 21:41:00,
2013-02-06 14:11:00,55.0,43.0,-100.00,North,-999,-999.0,-999.0,64,0.00,,,0.00,,2013-02-06 22:11:00,
2013-02-06 14:21:00,55.0,43.0,-100.00,North,-999,-999.0,-999.0,64,0.00,,,0.00,,2013-02-06 22:21:00,
2013-02-06 14:31:00,55.0,43.0,-100.00,North,-999,-999.0,-999.0,64,0.00,,,0.00,,2013-02-06 22:31:00,
2013-02-06 14:41:00,55.0,43.0,-100.00,North,-999,-999.0,-999.0,64,0.00,,,0.00,,2013-02-06 22:41:00,
2013-02-06 15:11:00,54.0,44.0,-100.00,North,-999,-999.0,-999.0,68,0.00,,,0.00,,2013-02-06 23:11:00,
2013-02-06 15:21:00,54.0,44.0,-100.00,North,-999,-999.0,-999.0,68,0.00,,,0.00,,2013-02-06 23:21:00,
2013-02-06 15:31:00,54.0,44.0,-100.00,North,-999,-999.0,-999.0,68,0.00,,,0.00,,2013-02-06 23:31:00,
2013-02-06 15:41:00,54.0,44.0,-100.00,North,-999,-999.0,-999.0,68,0.00,,,0.00,,2013-02-06 23:41:00,
2013-02-06 16:11:00,53.0,43.0,-100.00,North,-999,-999.0,-999.0,70,0.00,,,0.00,,2013-02-07 00:11:00,
2013-02-06 16:21:00,53.0,43.0,-100.00,North,-999,-999.0,-999.0,70,0.00,,,0.00,,2013-02-07 00:21:00,
2013-02-06 16:31:00,53.0,43.0,-100.00,North,-999,-999.0,-999.0,70,0.00,,,0.00,,2013-02-07 00:31:00,
2013-02-06 16:41:00,53.0,43.0,-100.00,North,-999,-999.0,-999.0,70,0.00,,,0.00,,2013-02-07 00:41:00,
2013-02-06 17:11:00,52.0,43.0,-100.00,North,-999,-999.0,-999.0,72,0.00,,,0.00,,2013-02-07 01:11:00,
2013-02-06 17:21:00,52.0,43.0,-100.00,North,-999,-999.0,-999.0,72,0.00,,,0.00,,2013-02-07 01:21:00,
2013-02-06 17:31:00,52.0,43.0,-100.00,North,-999,-999.0,-999.0,72,0.00,,,0.00,,2013-02-07 01:31:00,
2013-02-06 17:41:00,52.0,43.0,-100.00,North,-999,-999.0,-999.0,72,0.00,,,0.00,,2013-02-07 01:41:00,
2013-02-06 18:11:00,51.0,43.0,-100.00,North,-999,-999.0,-999.0,75,0.00,,,0.00,,2013-02-07 02:11:00,
2013-02-06 18:21:00,51.0,43.0,-100.00,North,-999,-999.0,-999.0,75,0.00,,,0.00,,2013-02-07 02:21:00,
2013-02-06 18:31:00,51.0,43.0,-100.00,North,-999,-999.0,-999.0,75,0.00,,,0.00,,2013-02-07 02:31:00,
2013-02-06 18:41:00,51.0,43.0,-100.00,North,-999,-999.0,-999.0,75,0.00,,,0.00,,2013-02-07 02:41:00,
2013-02-06 19:11:00,50.0,45.0,-100.00,North,-999,-999.0,-999.0,83,0.00,,,0.00,,2013-02-07 03:11:00,
2013-02-06 19:21:00,50.0,45.0,-100.00,North,-999,-999.0,-999.0,83,0.00,,,0.00,,2013-02-07 03:21:00,
2013-02-06 19:31:00,50.0,45.0,-100.00,North,-999,-999.0,-999.0,83,0.00,,,0.00,,2013-02-07 03:31:00,
2013-02-06 19:41:00,50.0,45.0,-100.00,North,-999,-999.0,-999.0,83,0.00,,,0.00,,2013-02-07 03:41:00,
2013-02-06 20:11:00,49.0,45.0,-100.00,North,-999,-999.0,-999.0,84,0.00,,,0.00,,2013-02-07 04:11:00,
2013-02-06 20:22:00,49.0,45.0,-100.00,North,-999,-999.0,-999.0,84,0.00,,,0.00,,2013-02-07 04:22:00,
2013-02-06 20:31:00,49.0,45.0,-100.00,North,-999,-999.0,-999.0,84,0.00,,,0.00,,2013-02-07 04:31:00,
2013-02-06 20:41:00,49.0,45.0,-100.00,North,-999,-999.0,-999.0,84,0.00,,,0.00,,2013-02-07 04:41:00,
2013-02-06 21:11:00,49.0,44.0,-100.00,North,-999,-999.0,-999.0,84,0.00,,,0.00,,2013-02-07 05:11:00,
2013-02-06 21:21:00,49.0,44.0,-100.00,North,-999,-999.0,-999.0,84,0.00,,,0.00,,2013-02-07 05:21:00,
2013-02-06 21:32:00,49.0,44.0,-100.00,North,-999,-999.0,-999.0,84,0.00,,,0.00,,2013-02-07 05:32:00,
2013-02-06 21:42:00,49.0,44.0,-100.00,North,-999,-999.0,-999.0,84,0.00,,,0.00,,2013-02-07 05:42:00,
2013-02-06 21:43:00,49.0,44.0,-100.00,North,-999,-999.0,-999.0,84,0.00,,,0.00,,2013-02-07 05:43:00,
2013-02-06 22:11:00,49.0,44.0,-100.00,North,-999,-999.0,-999.0,84,0.00,,,0.00,,2013-02-07 06:11:00,
2013-02-06 22:22:00,49.0,44.0,-100.00,North,-999,-999.0,-999.0,84,0.00,,,0.00,,2013-02-07 06:22:00,
2013-02-06 22:31:00,49.0,44.0,-100.00,North,-999,-999.0,-999.0,84,0.00,,,0.00,,2013-02-07 06:31:00,
2013-02-06 23:11:00,48.0,44.0,-100.00,North,-999,-999.0,-999.0,86,0.00,,,0.00,,2013-02-07 07:11:00,
2013-02-06 23:22:00,48.0,44.0,-100.00,North,-999,-999.0,-999.0,86,0.00,,,0.00,,2013-02-07 07:22:00,
2013-02-06 23:31:00,48.0,44.0,-100.00,North,-999,-999.0,-999.0,86,0.00,,,0.00,,2013-02-07 07:31:00,
2013-02-06 23:41:00,48.0,44.0,-100.00,North,-999,-999.0,-999.0,86,0.00,,,0.00,,2013-02-07 07:41:00,